RH
66 69 71 72 75 80 79 81 85 80 83 86 82 79 81 84 78 68 65 67 64 61 60 62 65 62 63 65 66 65 63 64 66 63 54 52 57 62 65 63 62 61 59 57 56 59 60 53 44 41 43 44 43 42 41 41 41 41 41 40 39 38 38 37 36 35 37 39 41 42 43 44 44 42 41 43 43 44 45 46 48 51 53 53 54 54 54 52 50 49 50 53 54 54 59 63 63
65 67 70 71 74 81 79 77 81 77 80 85 86 83 78 79 76 68 68 72 69 62 61 63 65 65 68 69 64 59 56 55 57 53 48 53 57 60 64 62 63 61 56 56 55 58 57 51 44 43 45 44 42 42 41 41 41 41 41 41 40 39 39 38 36 35 36 38 39 40 41 42 44 42 41 43 43 45 46 47 49 51 52 52 53 53 52 50 49 49 50 53 55 54 55 60 60
63 67 70 72 74 81 79 75 79 79 82 86 85 82 79 80 77 74 76 75 71 67 65 65 66 69 69 67 63 56 48 45 47 46 50 55 55 57 62 63 64 60 55 56 56 57 54 46 42 45 47 44 42 42 41 42 42 43 43 43 41 39 38 37 36 35 35 38 38 39 40 42 43 42 41 42 43 46 48 49 51 53 53 52 54 54 52 51 48 48 50 52 53 52 51 53 53
60 64 68 72 74 76 76 73 76 80 82 82 80 82 83 80 78 77 79 77 74 72 69 68 68 71 69 65 63 58 48 41 43 48 55 54 53 56 59 63 63 58 56 58 58 56 51 43 40 45 49 45 42 41 40 42 44 45 45 45 43 41 39 38 37 36 36 37 38 39 40 41 42 40 41 42 42 45 48 50 51 53 52 52 53 53 52 51 49 48 50 54 51 49 50 50 49
58 61 63 70 73 69 70 71 73 78 78 78 80 84 83 79 79 78 78 75 73 73 71 70 68 66 65 63 63 61 53 47 48 50 53 52 52 56 57 61 60 57 58 58 58 54 47 41 40 45 48 46 43 41 40 42 45 47 47 45 44 43 42 40 38 37 37 37 37 38 40 41 40 40 41 42 43 46 48 49 50 51 52 51 51 51 50 51 50 48 50 56 53 48 48 48 48
59 61 63 67 69 65 66 67 69 75 74 77 80 81 81 80 78 78 77 72 71 73 70 72 70 64 64 64 65 65 60 58 58 51 49 50 51 54 58 60 58 57 58 59 58 53 46 41 40 42 46 47 46 43 41 42 45 47 47 45 44 44 45 43 42 40 38 38 38 37 40 41 41 41 42 42 44 47 49 49 49 50 52 51 50 48 50 52 52 51 50 52 50 47 47 47 47
57 59 62 65 65 63 63 63 64 69 70 71 74 76 78 78 76 75 74 71 71 71 69 74 73 68 66 65 66 66 65 65 61 49 47 52 51 51 56 58 57 57 58 58 56 54 49 43 41 41 44 47 48 46 42 42 43 45 46 45 44 44 46 46 45 45 42 40 40 39 40 41 42 43 44 44 46 47 47 47 49 52 53 53 52 50 51 53 53 54 51 49 48 47 47 46 46
52 54 57 60 62 63 64 62 60 63 66 65 67 72 74 75 75 75 75 75 74 73 73 75 74 72 69 69 71 66 66 67 57 48 48 51 51 50 53 56 56 57 59 59 56 54 52 48 46 45 45 47 48 48 45 43 42 44 45 46 45 44 46 47 47 48 46 43 42 42 41 42 43 43 44 46 48 49 47 46 50 54 55 56 56 55 56 55 55 55 51 49 48 46 46 45 45
49 50 53 58 61 65 66 62 59 59 62 65 63 66 70 73 75 75 75 77 78 78 77 73 72 71 69 71 71 66 66 63 51 48 49 49 52 54 54 57 56 54 56 56 55 54 53 52 50 49 49 49 50 51 49 46 45 45 45 46 45 44 45 47 48 49 49 45 43 43 43 43 44 44 44 46 49 49 48 48 52 55 57 58 58 58 58 57 57 55 51 50 47 45 45 44 44
49 49 51 58 58 61 65 60 57 55 58 66 64 61 66 74 77 75 75 77 79 80 77 71 69 69 69 68 68 69 64 54 48 48 49 48 54 59 60 60 59 56 55 54 55 56 57 56 53 52 52 50 51 53 52 50 49 49 48 47 44 44 45 47 49 50 51 48 45 43 44 44 44 46 45 46 48 49 48 50 53 56 60 60 58 57 57 57 57 54 51 49 46 45 44 43 43
48 48 47 51 50 51 58 57 56 53 55 64 66 61 65 73 76 76 77 78 77 77 76 72 70 70 71 69 69 69 60 52 51 48 48 53 57 62 64 60 58 58 55 53 56 57 58 58 56 54 53 52 52 52 52 53 54 52 52 50 46 45 46 47 49 51 52 50 46 44 45 45 45 47 46 46 49 50 49 50 53 57 61 60 57 58 58 57 55 51 49 48 47 45 44 43 42
47 48 47 45 42 44 51 53 54 51 51 55 62 67 66 66 65 67 72 74 77 78 75 73 71 71 73 72 71 68 61 57 54 49 52 57 58 61 63 58 58 59 54 51 53 55 56 58 58 58 56 54 53 52 52 55 56 54 54 53 50 49 48 48 49 50 51 50 48 46 47 48 49 51 50 49 52 53 53 53 56 61 63 60 58 57 57 55 52 50 49 48 48 46 44 43 42
44 43 44 42 39 42 47 49 50 48 48 45 50 64 65 62 58 58 64 66 72 75 76 75 71 72 74 75 74 71 68 59 50 49 55 59 58 62 64 59 59 60 54 51 50 51 54 56 57 59 59 57 56 56 55 57 58 57 56 56 54 52 52 52 52 53 53 53 52 51 52 52 54 57 55 53 56 60 60 61 63 64 63 58 57 55 54 54 52 50 50 49 48 47 46 44 42
39 38 38 36 37 41 43 44 46 43 44 42 44 56 61 62 57 54 58 60 63 68 74 74 71 73 75 76 75 73 71 60 51 49 52 57 58 61 63 60 61 62 57 51 49 51 52 55 56 58 59 59 59 60 59 58 59 61 60 59 56 54 56 56 57 58 56 57 56 53 53 54 57 60 60 59 61 64 66 67 66 66 62 57 55 53 51 52 52 50 50 49 49 48 47 45 42
35 37 35 30 32 36 38 42 43 38 39 40 43 51 55 61 61 55 54 55 57 60 66 69 72 75 74 76 73 70 70 60 57 56 52 54 59 62 61 62 65 63 62 56 51 52 52 52 53 56 59 60 61 63 63 61 62 65 65 65 61 58 59 59 61 61 58 60 59 56 53 53 58 60 62 63 64 66 67 67 65 65 61 56 54 50 48 50 50 50 50 49 50 50 48 45 42
30 34 33 27 30 32 34 40 41 37 37 38 42 49 52 57 63 62 56 52 53 55 58 62 66 70 71 73 71 69 67 59 62 65 59 55 59 60 58 61 63 63 65 60 55 53 53 51 52 56 59 60 63 65 66 65 64 66 66 67 64 63 65 63 62 62 61 62 61 61 58 55 58 59 60 63 65 66 66 65 64 63 60 57 53 49 48 48 48 49 51 51 51 50 49 45 41
29 28 28 26 30 31 32 36 36 35 38 38 41 47 51 54 60 64 59 52 50 50 54 56 58 61 64 67 68 67 63 61 64 65 62 59 58 57 56 57 60 62 63 60 58 56 56 55 53 55 58 60 63 64 65 65 64 65 65 66 66 67 69 68 63 62 64 66 65 65 64 60 61 60 59 62 65 66 65 65 65 64 61 59 54 50 49 48 47 48 51 53 53 51 48 44 41
32 29 25 26 30 27 29 33 32 35 38 38 39 42 48 56 58 61 61 56 51 49 50 51 52 54 56 59 59 57 57 62 65 63 61 61 60 59 60 59 59 62 60 60 61 60 61 58 55 54 56 58 61 62 63 64 64 65 65 66 68 68 70 69 65 65 68 67 66 67 67 64 62 63 62 63 66 67 66 66 67 66 62 59 54 50 49 48 48 50 52 52 53 52 50 45 42
31 30 29 28 27 25 26 30 33 36 39 40 41 40 44 55 56 55 57 56 52 50 48 49 50 49 50 52 51 49 51 57 62 62 62 63 62 60 62 62 61 62 60 61 62 63 63 59 58 56 55 57 59 61 62 64 65 66 66 66 67 69 70 67 66 70 69 66 65 66 68 66 63 64 65 65 67 68 68 67 68 66 63 59 54 50 48 48 49 50 52 51 52 52 51 51 53
24 26 32 30 28 28 24 25 33 37 39 42 44 43 42 52 55 52 52 53 52 50 48 49 49 48 50 49 47 47 47 49 54 57 59 64 66 63 62 62 64 65 63 65 64 63 62 59 58 57 56 57 57 61 63 65 67 66 66 66 67 69 69 67 70 74 70 66 65 65 67 69 67 67 67 69 72 69 67 67 66 66 63 61 56 52 48 49 50 51 52 51 51 50 51 57 66
22 21 29 28 28 30 24 24 30 34 39 42 43 45 46 50 51 49 50 52 50 48 47 45 46 51 53 50 45 44 45 47 50 55 56 61 68 67 64 65 66 66 66 70 67 64 64 61 59 58 59 56 55 59 62 65 68 67 67 67 66 67 69 73 75 72 68 67 68 67 67 70 70 70 70 71 75 72 68 65 63 63 62 61 59 55 52 51 52 54 55 52 54 53 53 59 67
25 21 23 27 27 28 24 23 27 35 41 38 37 42 46 46 45 44 48 48 45 46 44 39 43 50 52 50 46 45 46 47 53 60 58 58 64 65 66 68 69 69 69 71 69 68 67 63 62 60 59 56 54 57 59 62 66 65 66 66 65 67 71 76 74 66 65 67 69 68 67 70 70 72 72 73 77 76 73 69 64 62 61 62 61 59 57 56 55 59 61 57 58 59 58 63 66
27 21 19 25 27 27 25 22 27 35 36 30 32 37 39 41 42 42 46 47 45 47 43 38 45 52 53 50 48 50 50 49 53 60 60 59 61 63 68 70 70 72 71 70 70 70 69 64 62 62 61 56 54 54 55 57 60 60 63 65 66 67 69 71 69 66 66 65 64 65 66 70 70 71 74 74 77 79 79 77 72 67 64 63 63 63 61 61 60 60 64 63 64 63 63 67 66
26 20 20 22 24 26 25 24 25 28 28 25 30 35 34 37 40 42 47 48 46 48 46 44 50 54 55 51 50 55 54 50 52 56 58 59 60 61 66 67 67 70 70 71 69 67 69 66 62 63 61 58 57 56 56 57 58 59 62 65 64 64 63 63 65 66 66 61 61 64 66 68 70 70 72 73 74 77 80 81 79 77 75 70 65 66 65 65 64 62 64 67 68 66 66 73 68
23 20 25 25 25 25 24 30 27 26 30 24 27 34 33 35 37 40 48 50 46 49 51 50 54 57 58 55 53 57 54 48 49 50 53 55 59 61 64 66 66 68 70 71 70 67 68 66 63 63 61 60 61 59 59 60 58 57 59 59 60 60 58 58 60 63 64 61 61 62 63 67 70 69 70 71 72 75 78 80 81 82 84 77 68 68 69 68 67 64 62 63 65 65 69 77 73
18 21 30 28 26 24 24 35 33 31 35 25 26 35 33 33 35 40 47 49 48 49 51 51 55 57 59 58 55 58 56 48 47 49 50 50 54 58 60 62 63 66 69 68 67 69 68 66 65 63 60 60 61 57 58 60 57 57 57 56 59 59 58 58 58 60 62 62 62 63 62 66 71 71 70 72 74 76 77 79 82 83 85 79 71 69 68 68 67 64 62 61 61 66 71 73 73
16 20 29 26 25 25 22 30 30 30 38 29 28 36 34 30 33 40 48 51 52 50 48 48 54 55 54 54 54 57 54 47 48 49 49 49 50 53 55 57 58 62 65 63 64 68 69 68 65 64 63 61 60 59 58 57 58 59 59 59 60 60 60 61 61 63 65 63 63 64 63 67 72 73 71 73 77 80 80 81 83 83 82 79 74 70 66 65 65 62 60 58 57 64 69 65 66
19 20 27 27 25 26 22 26 25 27 38 29 26 37 35 30 31 38 47 50 50 51 48 45 49 51 51 50 51 56 53 47 49 49 50 52 51 52 54 56 57 59 60 60 61 64 68 69 67 67 67 66 66 65 64 63 62 62 63 62 61 62 61 62 63 64 65 65 64 64 65 69 72 72 72 74 78 81 82 83 83 81 80 78 75 73 69 63 62 61 58 57 56 58 62 59 59
22 21 28 29 26 29 25 24 22 25 37 29 27 38 36 35 32 32 44 47 46 51 51 46 47 47 50 51 49 55 55 51 51 51 51 53 52 52 54 54 54 56 58 59 60 62 67 69 71 73 73 72 72 72 71 72 72 69 69 68 66 65 63 63 63 62 64 67 67 63 64 68 68 70 72 74 76 79 82 84 84 82 79 77 76 77 75 67 61 59 56 56 58 57 57 58 56
22 22 26 25 26 33 29 25 22 24 32 28 30 36 34 37 33 27 40 44 41 50 53 48 47 44 49 53 51 56 59 57 57 56 54 53 53 52 53 53 50 51 54 57 59 60 64 65 69 74 74 74 74 72 73 74 75 73 72 72 71 68 65 65 65 64 66 68 69 66 64 64 65 67 69 72 75 79 82 83 84 83 79 77 75 75 74 70 62 57 55 53 55 57 57 58 55
21 22 21 21 27 34 31 25 25 26 28 27 30 33 31 36 35 28 34 38 36 45 51 48 47 45 49 52 50 54 57 57 59 58 54 54 55 53 54 53 48 48 51 54 56 57 60 60 61 66 68 70 71 72 72 73 75 74 72 72 71 69 68 69 69 69 70 70 70 69 65 62 63 68 70 73 77 82 84 83 82 80 78 76 73 72 71 71 64 58 56 50 50 56 57 56 54
20 19 18 19 22 28 28 23 24 26 25 26 28 30 30 33 35 32 34 38 36 41 49 52 52 49 49 50 49 53 57 57 59 59 59 57 55 54 54 53 49 47 48 51 53 54 57 58 57 61 65 67 69 71 71 72 74 74 73 73 72 72 72 72 73 76 76 74 71 70 68 66 69 75 77 77 78 82 84 82 80 77 75 74 72 70 68 68 64 58 55 50 50 54 55 55 53
20 18 18 17 17 22 25 25 24 21 20 25 27 28 32 33 35 36 36 38 37 39 46 51 51 48 47 47 48 55 59 57 56 58 64 62 54 53 53 52 50 48 47 50 53 54 57 58 59 60 64 65 66 69 70 71 72 73 73 73 73 74 75 77 78 81 80 76 72 69 70 70 71 75 78 78 80 81 81 80 79 77 74 72 71 69 66 64 61 59 56 52 51 51 51 53 51
19 19 18 16 16 18 22 27 24 19 19 22 24 28 33 34 34 34 33 35 37 37 42 45 44 42 44 46 46 50 55 54 49 51 61 61 52 51 51 50 51 50 49 52 54 54 54 55 58 58 60 62 64 66 67 69 71 73 76 75 73 76 80 80 78 81 81 77 73 69 72 73 69 71 75 79 83 82 81 81 80 77 74 72 71 67 65 63 60 59 57 53 52 49 49 52 50
18 19 17 16 16 15 19 24 20 19 18 16 22 31 32 32 34 31 28 31 37 38 39 41 41 41 44 46 44 44 51 54 47 47 55 54 49 48 50 51 51 50 50 52 54 55 54 54 55 56 57 58 60 61 61 64 68 71 74 74 73 77 81 78 75 79 81 79 77 73 75 76 71 71 74 78 83 83 83 82 81 78 75 73 70 66 64 63 60 58 55 52 52 50 47 48 48
15 16 14 16 16 14 16 19 18 17 14 15 24 28 26 30 33 30 27 29 33 36 36 36 41 45 46 46 43 42 50 53 46 46 51 47 45 47 48 50 50 51 52 51 53 55 55 55 55 55 55 56 58 60 56 58 62 64 67 69 70 72 72 71 71 75 78 78 79 76 76 76 74 73 72 78 84 85 83 81 81 79 76 74 69 66 64 60 58 57 53 51 51 50 46 43 45
10 12 15 17 15 14 17 19 19 16 13 17 23 21 20 26 30 28 29 30 30 32 35 38 42 43 45 46 42 40 45 49 46 46 48 47 46 48 49 49 50 52 53 51 52 55 53 54 56 55 56 57 58 59 55 54 58 60 63 66 67 66 66 66 67 69 71 73 76 78 78 75 74 73 72 77 84 86 83 81 81 80 77 75 69 66 64 57 56 57 56 54 52 49 45 42 44
8 11 15 17 14 14 17 18 19 17 13 16 20 21 21 25 31 31 31 32 30 31 34 39 41 39 43 48 45 41 41 46 51 48 46 48 48 48 49 50 51 51 50 48 49 52 51 53 56 56 57 57 55 56 55 54 56 59 62 66 67 64 63 63 62 63 64 67 71 75 77 72 69 70 70 74 79 83 84 81 81 81 78 76 70 66 63 57 56 55 56 55 52 49 46 44 44
8 12 15 16 16 15 17 18 18 15 12 14 18 19 21 27 33 32 31 32 33 34 33 37 40 39 44 48 46 43 42 45 52 51 49 50 50 50 50 51 53 49 45 45 46 49 52 54 57 57 56 54 50 50 52 52 53 56 61 66 67 64 62 62 61 61 63 65 67 68 70 70 68 70 69 71 78 82 84 84 82 81 80 76 69 65 61 57 56 55 55 54 51 48 45 45 45
9 12 14 15 16 14 16 18 17 14 11 14 18 18 21 28 29 29 29 31 34 34 32 35 39 41 45 45 43 43 45 47 48 49 52 55 54 53 51 50 50 49 47 47 47 49 52 53 54 53 53 52 48 46 47 50 52 54 60 64 65 64 64 65 64 64 64 64 66 65 65 67 69 71 69 70 75 80 82 85 84 81 78 74 69 65 61 59 58 56 55 55 54 49 45 46 47
12 14 15 15 14 14 15 15 14 14 13 16 19 17 21 27 27 27 28 32 39 35 32 37 41 46 46 42 42 44 45 48 49 50 57 59 55 50 47 42 41 45 46 47 47 48 49 50 51 52 53 52 49 47 45 49 54 55 58 61 63 63 63 65 66 67 65 63 64 65 63 62 66 69 70 68 70 76 80 83 84 82 78 74 69 66 62 60 60 57 54 55 52 49 47 47 47
13 13 14 13 13 14 15 12 11 12 15 21 19 15 22 28 25 27 27 32 44 42 38 41 44 51 52 45 44 45 44 47 49 52 57 59 57 52 46 39 38 43 43 44 47 47 48 51 53 54 55 56 60 60 56 55 58 58 59 61 62 62 62 62 64 66 66 61 59 60 59 60 64 67 69 69 67 72 78 82 84 81 78 75 70 68 64 59 59 57 54 52 48 46 47 46 46
11 12 12 13 12 13 12 12 12 12 14 17 15 14 22 27 24 26 27 31 42 45 43 44 43 46 52 49 46 43 42 44 47 49 52 57 61 56 51 45 44 47 46 45 46 46 48 51 55 58 61 66 73 75 69 63 63 64 63 63 63 63 62 61 63 65 66 63 59 59 60 61 63 63 65 67 67 70 76 80 82 80 77 74 71 70 67 62 62 58 54 51 47 46 45 44 46
10 11 12 13 12 12 12 13 13 12 11 11 13 15 17 23 24 25 26 30 41 45 42 43 42 41 46 48 46 43 41 42 42 44 49 60 66 57 51 49 45 45 46 44 45 46 48 51 57 64 68 69 71 70 67 63 66 68 65 64 68 67 64 63 63 64 66 66 65 66 65 62 61 61 62 64 68 72 75 77 79 79 76 73 71 69 66 64 64 59 53 53 50 47 45 44 48
11 11 11 11 9 10 11 11 11 11 12 11 12 14 16 22 26 25 27 31 40 44 39 37 38 39 41 43 42 41 43 42 40 42 48 56 64 58 51 47 41 39 40 41 44 46 50 56 59 60 59 59 61 62 62 61 63 66 67 69 72 69 65 63 63 64 65 65 67 71 70 65 61 61 62 62 66 69 72 75 76 77 76 73 72 68 65 65 64 60 56 54 52 48 45 46 48
11 11 9 8 7 8 10 11 11 12 14 14 14 14 16 22 25 24 27 31 38 41 36 34 35 36 38 39 37 37 40 40 37 42 46 46 54 61 59 51 44 40 39 43 47 48 55 62 56 48 48 51 55 57 58 58 56 58 64 67 67 65 63 61 61 64 65 64 68 73 72 69 66 64 62 62 64 65 68 72 75 77 76 75 74 69 66 67 64 60 57 54 50 48 46 46 48
8 8 8 8 10 11 12 13 13 15 16 16 16 15 14 22 27 25 28 31 35 37 34 34 35 34 36 37 36 36 38 38 37 42 47 45 50 59 61 55 50 48 47 49 51 52 58 61 51 44 48 52 52 54 56 55 52 54 59 60 61 63 61 58 59 62 64 65 69 72 71 69 68 67 65 63 64 65 67 71 75 77 78 77 76 70 68 70 66 60 56 52 49 46 45 47 48
9 9 8 10 13 13 13 15 16 19 19 18 18 17 18 29 33 31 32 34 35 35 34 37 38 37 37 37 35 34 35 37 40 43 46 49 51 56 60 54 50 50 50 50 53 55 58 59 52 47 51 54 53 53 55 53 49 51 56 58 58 59 58 57 58 60 62 64 68 71 70 68 68 68 66 65 66 67 68 71 73 76 77 79 79 74 68 69 70 65 58 54 50 46 45 47 49
14 13 12 13 14 14 14 15 17 19 19 20 20 18 25 33 32 32 36 39 40 37 34 36 38 37 37 37 35 35 37 39 41 42 44 47 49 57 62 56 49 49 49 49 50 51 55 57 54 51 52 54 55 53 52 51 49 48 51 55 54 54 54 55 55 57 60 63 67 70 70 69 69 68 66 65 66 66 68 70 72 73 75 77 79 77 71 68 69 67 61 55 52 47 44 45 49
15 15 15 14 14 14 16 16 17 18 18 19 17 18 27 33 31 32 35 37 39 38 37 36 36 34 34 36 35 35 40 41 40 42 44 46 49 55 60 55 50 48 48 48 47 47 53 56 53 50 46 45 47 49 49 49 51 49 48 48 50 51 52 51 52 54 58 61 64 66 68 69 68 68 68 68 67 67 67 70 73 74 74 76 78 76 74 71 68 68 64 57 54 50 44 43 49
15 14 12 13 13 13 13 14 16 17 17 18 18 21 27 32 36 36 32 33 36 38 39 36 34 34 34 34 35 36 41 42 42 45 45 45 49 52 55 54 53 51 48 47 45 44 49 55 52 45 39 35 36 41 46 49 51 51 46 43 45 49 50 51 52 54 57 59 61 64 67 69 68 67 68 69 69 69 68 69 72 74 74 75 77 75 75 72 70 72 69 60 55 52 46 44 49
15 12 10 11 14 13 12 14 16 16 17 17 19 24 29 33 36 34 31 34 37 37 38 37 37 39 37 36 37 37 40 43 44 45 44 43 45 49 52 53 54 54 49 45 45 45 47 52 53 45 39 37 35 37 43 46 47 46 44 43 45 47 49 51 53 56 59 58 60 63 66 69 68 67 67 68 69 71 72 70 70 73 75 76 76 75 75 73 70 72 70 63 56 54 50 47 49
14 12 11 12 15 14 14 15 15 16 19 18 19 25 30 36 39 35 34 36 38 39 40 39 38 39 39 40 40 40 40 43 45 43 42 42 44 47 51 52 52 54 51 45 45 46 46 50 54 53 48 43 39 38 41 42 43 43 44 47 49 49 49 51 53 56 58 58 59 62 65 69 71 70 70 69 69 70 73 73 71 72 74 76 75 75 76 74 70 70 71 66 57 51 52 51 49
13 12 13 14 16 16 16 18 18 20 23 23 27 31 32 40 46 41 35 36 39 41 40 39 39 39 39 38 39 42 42 43 45 44 42 43 44 45 49 51 52 54 53 46 42 45 45 47 52 55 54 51 47 44 44 44 45 45 46 49 50 49 48 50 53 55 56 56 57 59 63 67 70 71 70 69 69 68 69 72 72 72 74 75 75 76 78 76 72 70 70 66 57 51 53 53 50
15 16 15 15 18 18 20 21 23 26 26 25 34 45 46 47 50 47 43 43 44 42 42 43 45 44 42 39 39 43 45 44 44 46 46 43 42 46 50 51 51 52 52 47 43 44 42 43 46 48 49 50 50 49 47 46 47 48 48 49 49 48 48 49 53 55 54 53 55 58 61 65 66 70 72 70 68 67 68 70 72 72 73 74 74 76 77 77 73 70 68 66 62 59 57 55 53
21 21 20 20 20 21 24 25 26 28 28 28 36 49 56 53 48 49 50 49 47 48 50 52 51 49 47 45 44 45 48 47 47 50 49 44 44 50 52 52 54 55 51 46 44 42 39 39 41 44 48 50 50 49 46 45 46 47 49 50 50 49 50 49 51 54 54 53 55 57 60 65 67 68 71 72 71 70 69 69 71 72 73 74 74 75 77 77 74 70 66 65 64 63 58 55 55
27 27 26 26 25 26 29 30 29 28 30 35 36 44 56 52 43 45 50 50 49 52 57 59 56 54 52 52 52 50 50 50 49 49 47 47 50 55 58 56 56 56 52 46 42 40 38 38 38 41 46 50 51 51 48 47 46 45 47 50 50 50 50 50 51 54 54 54 55 56 59 65 69 67 69 71 73 74 72 70 71 72 72 73 73 74 77 77 74 71 69 67 64 61 57 55 56
28 28 26 27 27 28 31 31 31 29 32 37 34 44 63 59 47 49 52 51 52 53 56 57 58 58 56 57 58 56 54 52 52 51 50 52 57 62 66 62 56 55 53 47 44 42 41 40 40 42 44 47 49 51 50 49 47 47 47 50 50 49 49 51 53 54 54 53 54 55 57 64 68 67 67 69 71 74 75 73 73 72 71 72 74 75 76 77 75 73 71 69 64 60 60 59 57